Weather History for KAPF - September, 2013

Change the Weather History Date:

Monday, September 2, 2013

  Actual Average Record
Temperature  
Mean Temperature 82 °F 83 °F  
Max Temperature 88 °F 91 °F 96 °F (1986)
Min Temperature 75 °F 76 °F 69 °F (1956)
Degree Days  
Heating Degree Days 0 0  
Month to date heating degree days 0 0  
Since 1 July heating degree days 0 0  
Cooling Degree Days 17 18  
Month to date cooling degree days 35 36  
Year to date cooling degree days 2730 2693  
Growing Degree Days 31 (Base 50)    
Moisture  
Dew Point 76 °F    
Average Humidity 86    
Maximum Humidity 100    
Minimum Humidity 72    
Precipitation  
Precipitation 0.28 in 0.25 in 4.50 in (1983)
Month to date precipitation 0.29 0.49  
Year to date precipitation 36.30 37.01  
Snow  
Snow 0.00 in - - ()
Month to date snowfall 0.0  
Since 1 July snowfall 0.0  
Since 1 September snowfall 0.0  
Snow Depth 0.00 in    
Sea Level Pressure  
Sea Level Pressure 30.00 in    
Wind  
Wind Speed 4 mph (ENE)    
Max Wind Speed 15 mph    
Max Gust Speed 20 mph    
Visibility 8 miles    
Events Rain , Thunderstorm    
T = Trace of Precipitation, MM = Missing Value Source: NWS Daily Summary

Daily Weather History Graph

Daily Weather History Graph

Search for Another Location

Airport or City:

Trip Planner

Search our weather history database for the weather conditions in past years. The results will help you decide how hot, cold, wet, or windy it might be!

Date:

Astronomy

Sep. 02, 2013 Rise Set
Actual Time 7:07 AM EDT 7:45 PM EDT
Civil Twilight 6:44 AM EDT 8:08 PM EDT
Nautical Twilight 6:16 AM EDT 8:36 PM EDT
Astronomical Twilight 5:48 AM EDT 9:03 PM EDT
Moon 4:33 AM EDT (9/2) 5:50 PM EDT (9/2)
Length of Visible Light 13h 24m
Length of Day
12h 37m
Waning Crescent, 8% of the Moon is Illuminated
Sep 2
Waning Crescent
Sep 5
New
Sep 12
First Quarter
Sep 19
Full
Sep 26
Last Quarter

Hourly Weather History & Observations

Time (EDT) Temp. Heat Index Dew Point Humidity Pressure Visibility Wind Dir Wind Speed Gust Speed Precip Events Conditions
12:53 AM 77.0 °F - 73.9 °F 90% 30.00 in 10.0 mi ESE 4.6 mph - N/A   Clear
1:53 AM 78.1 °F - 75.0 °F 90% 29.98 in 10.0 mi ESE 3.5 mph - N/A   Clear
2:53 AM 77.0 °F - 75.0 °F 94% 29.96 in 10.0 mi Calm Calm - N/A   Clear
3:53 AM 77.0 °F - 75.0 °F 94% 29.94 in 10.0 mi Calm Calm - N/A   Clear
4:53 AM 77.0 °F - 75.0 °F 94% 29.95 in 10.0 mi East 3.5 mph - N/A   Clear
5:53 AM 77.0 °F - 73.9 °F 90% 29.96 in 10.0 mi Calm Calm - N/A   Clear
6:53 AM 77.0 °F - 75.0 °F 94% 29.98 in 10.0 mi Calm Calm - N/A   Partly Cloudy
7:53 AM 78.1 °F - 75.0 °F 90% 29.99 in 9.0 mi Calm Calm - N/A   Clear
8:53 AM 82.0 °F 89.4 °F 75.9 °F 82% 30.00 in 10.0 mi East 3.5 mph - N/A   Clear
9:53 AM 86.0 °F 98.3 °F 78.1 °F 77% 30.01 in 9.0 mi South 5.8 mph - N/A   Scattered Clouds
10:17 AM 84.2 °F 94.1 °F 77.0 °F 79% 30.02 in 9.0 mi South 6.9 mph - N/A   Mostly Cloudy
10:25 AM 84.2 °F 94.1 °F 77.0 °F 79% 30.02 in 8.0 mi SSW 5.8 mph - N/A   Scattered Clouds
10:53 AM 87.1 °F 98.8 °F 77.0 °F 72% 30.03 in 8.0 mi WSW 6.9 mph - N/A   Scattered Clouds
11:42 AM 86.0 °F 95.1 °F 75.2 °F 70% 30.03 in 8.0 mi WSW 10.4 mph - N/A Thunderstorm Thunderstorm
11:53 AM 87.1 °F 97.3 °F 75.9 °F 69% 30.02 in 8.0 mi SW 9.2 mph - N/A Thunderstorm Thunderstorm
12:32 PM 87.8 °F 97.6 °F 75.2 °F 66% 30.02 in 8.0 mi WNW 11.5 mph - N/A   Mostly Cloudy
12:53 PM 86.0 °F 96.0 °F 75.9 °F 72% 30.03 in 8.0 mi WNW 5.8 mph - N/A   Overcast
1:05 PM 84.2 °F 92.3 °F 75.2 °F 74% 30.03 in 8.0 mi NW 9.2 mph - N/A Thunderstorm Thunderstorm
1:53 PM 81.0 °F 85.8 °F 73.0 °F 77% 30.02 in 9.0 mi ESE 6.9 mph - N/A Thunderstorm Thunderstorm
2:32 PM 78.8 °F - 75.2 °F 89% 30.01 in 9.0 mi ENE 6.9 mph - 0.00 in Thunderstorm Overcast
2:53 PM 79.0 °F - 75.9 °F 90% 30.01 in 8.0 mi ENE 8.1 mph - 0.00 in Thunderstorm Scattered Clouds
3:03 PM 78.8 °F - 75.2 °F 89% 30.00 in 8.0 mi East 11.5 mph - N/A   Mostly Cloudy
3:13 PM 78.8 °F - 75.2 °F 89% 30.01 in 2.0 mi ESE 9.2 mph - 0.07 in Rain , Thunderstorm Light Thunderstorms and Rain
3:20 PM 77.0 °F - 75.2 °F 94% 30.00 in 1.2 mi East 9.2 mph - 0.10 in Rain , Thunderstorm Light Thunderstorms and Rain
3:30 PM 78.8 °F - 77.0 °F 94% 30.00 in 2.5 mi NE 4.6 mph - 0.13 in Rain , Thunderstorm Light Thunderstorms and Rain
3:37 PM 78.8 °F - 78.8 °F 100% 30.00 in 7.0 mi ENE 8.1 mph - 0.13 in Rain , Thunderstorm Light Thunderstorms and Rain
3:53 PM 79.0 °F - 78.1 °F 97% 30.00 in 8.0 mi NE 8.1 mph - 0.13 in Thunderstorm Thunderstorm
4:12 PM 77.0 °F - 77.0 °F 100% 30.01 in 1.5 mi NE 6.9 mph - 0.13 in Rain , Thunderstorm Heavy Rain
4:22 PM 77.0 °F - 77.0 °F 100% 30.01 in 3.0 mi NNE 8.1 mph - 0.14 in Rain , Thunderstorm Light Thunderstorms and Rain
4:33 PM 75.2 °F - 75.2 °F 100% 30.02 in 6.0 mi North 10.4 mph - 0.14 in Thunderstorm Overcast
4:53 PM 77.0 °F - 73.9 °F 90% 29.98 in 3.0 mi NNE 6.9 mph - 0.15 in Rain Rain
5:53 PM 81.0 °F 86.7 °F 75.0 °F 82% 29.96 in 9.0 mi NE 6.9 mph - 0.00 in   Clear
6:53 PM 80.1 °F 84.5 °F 73.9 °F 81% 29.96 in 9.0 mi East 4.6 mph - N/A   Clear
7:53 PM 77.0 °F - 75.9 °F 96% 29.97 in 7.0 mi ENE 3.5 mph - N/A   Clear
8:53 PM 77.0 °F - 75.0 °F 94% 29.98 in 9.0 mi Calm Calm - N/A   Clear
9:53 PM 75.9 °F - 75.0 °F 97% 29.99 in 9.0 mi ENE 3.5 mph - N/A   Clear
10:53 PM 75.9 °F - 75.0 °F 97% 29.99 in 9.0 mi Calm Calm - N/A   Clear
11:53 PM 75.9 °F - 75.0 °F 97% 29.99 in 8.0 mi Calm Calm - N/A   Clear